Volver al catálogo

STARLINK-36312

ActivoComunicacionesSSO
NORAD 67609·PAYLOAD·🇺🇸 United States

Lanzado Jan 29, 2026 desde Vandenberg Space Force Base

Loading…

Próximos Pases (próximas 24 horas)

TLE

ActualizadoSource: CelesTrak SupGP

Época: Sep 14, 2026, 21:17 UTC

1 67609C 26018W   26257.88729167 -.00020621  00000+0 -64025-3 0  2574
2 67609  97.2852 321.4572 0001005  92.2776 217.1171 15.33444602    19

Sigue STARLINK-36312 en tiempo real con AllMySat

Download on the App Store